Temperature
13 13 13 13 13 13 13 13 12 12 12 13 13 13 13 13 12 12 12 12 12 12 12 12 12 11 12 12 12 12 11 11 11 11 11 12 11 11 11 11 11 12 12
13 13 13 13 13 12 12 12 12 12 12 12 12 12 12 12 12 12 12 12 12 12 12 12 11 11 11 12 12 12 12 12 11 11 11 11 11 11 11 11 11 11 11
13 12 12 12 12 12 12 12 12 12 12 11 11 11 11 12 12 12 12 12 12 11 11 11 11 11 11 11 11 11 12 12 12 11 11 11 11 11 11 11 11 11 11
12 12 12 12 12 12 12 12 11 11 11 11 11 11 11 11 11 11 11 11 11 11 11 11 11 11 11 11 11 11 11 11 11 11 11 11 11 11 11 11 11 11 11
12 12 12 12 12 12 12 11 11 11 11 10 10 10 10 10 11 10 10 11 11 11 11 11 11 11 11 10 10 10 10 10 10 11 11 11 11 11 11 11 11 11 11
12 12 12 11 11 11 11 11 10 10 9 9 9 9 9 10 10 10 10 11 11 11 10 10 10 10 10 10 10 10 9 9 9 9 9 10 10 10 10 10 11 11 11
12 12 11 11 11 10 10 9 9 9 8 8 7 8 8 8 8 9 9 8 8 8 8 8 8 8 8 9 9 9 9 8 8 8 8 8 9 9 9 9 10 10 10
11 11 11 11 10 9 9 8 8 7 7 7 6 6 5 6 7 6 6 6 6 6 6 7 6 6 6 6 7 7 7 7 7 7 7 7 7 7 8 8 8 9 9
11 11 10 10 9 8 8 7 7 7 6 6 5 4 4 4 4 4 4 5 5 5 5 4 4 5 5 5 5 5 5 6 5 5 5 5 5 6 6 7 7 8 8
10 10 10 9 8 8 7 6 6 6 5 5 5 4 4 3 3 3 3 3 3 3 3 3 3 3 3 3 3 4 4 4 4 4 4 4 4 4 5 5 5 6 6
10 10 9 8 8 7 6 6 6 5 5 4 4 3 3 2 2 1 1 1 1 2 1 1 1 1 1 2 2 3 3 3 3 3 3 3 3 3 3 3 3 4 4
9 9 8 8 7 6 6 5 5 5 4 3 3 2 1 1 1 0 0 0 0 0 0 0 -0 0 0 0 1 1 1 1 1 1 1 2 2 2 2 2 2 2 3
8 8 7 7 6 5 5 4 4 4 3 2 2 1 1 0 -0 -0 -0 -0 -1 -1 -1 -1 -1 -1 -1 -1 -1 -1 -1 -1 -1 -1 -0 0 0 0 0 0 1 1 1
8 7 6 5 5 4 4 4 3 3 2 1 1 0 -0 -0 -1 -1 -1 -1 -1 -2 -2 -2 -2 -2 -2 -2 -2 -2 -2 -2 -2 -2 -2 -2 -1 -1 -1 -1 -1 -0 -0
6 6 5 4 4 4 3 3 2 2 1 0 -0 -1 -1 -1 -1 -1 -2 -2 -2 -3 -3 -3 -3 -3 -3 -3 -3 -3 -3 -3 -3 -3 -3 -3 -3 -2 -2 -2 -2 -1 -1
5 4 4 4 3 3 2 2 2 1 0 -1 -1 -2 -2 -2 -2 -2 -2 -3 -3 -3 -4 -4 -4 -4 -4 -4 -4 -4 -4 -4 -4 -4 -4 -3 -3 -3 -3 -3 -2 -2 -2
4 3 3 3 3 2 2 1 1 -0 -1 -2 -2 -3 -3 -3 -3 -3 -3 -4 -4 -4 -5 -5 -5 -5 -5 -5 -5 -5 -5 -5 -5 -4 -4 -4 -4 -4 -3 -3 -3 -2 -2
3 3 3 2 2 2 1 0 -1 -2 -3 -3 -3 -4 -4 -4 -4 -4 -4 -4 -5 -5 -6 -6 -6 -6 -6 -6 -5 -5 -5 -5 -5 -5 -5 -5 -5 -4 -4 -4 -4 -3 -3
3 2 2 2 2 1 0 -1 -2 -3 -3 -4 -5 -5 -5 -5 -5 -5 -5 -5 -6 -6 -6 -6 -6 -6 -6 -6 -6 -6 -6 -6 -6 -6 -6 -6 -6 -6 -5 -5 -4 -4 -3
2 2 1 1 1 -0 -2 -3 -3 -4 -4 -5 -6 -6 -6 -6 -6 -6 -6 -6 -6 -6 -6 -7 -6 -6 -6 -6 -7 -7 -7 -7 -7 -8 -7 -7 -7 -6 -6 -5 -5 -4 -4
1 1 1 0 -1 -2 -3 -4 -4 -5 -5 -6 -6 -7 -7 -7 -6 -6 -6 -6 -6 -6 -6 -7 -7 -7 -7 -7 -7 -8 -8 -8 -8 -8 -8 -8 -8 -7 -7 -6 -6 -5 -5
1 1 -0 -1 -2 -3 -4 -4 -5 -6 -6 -7 -7 -7 -7 -7 -7 -7 -7 -7 -7 -7 -7 -7 -7 -7 -8 -8 -8 -8 -9 -9 -9 -8 -9 -8 -8 -8 -7 -7 -6 -5 -5
-0 -0 -1 -2 -3 -4 -4 -5 -5 -6 -7 -7 -7 -8 -8 -7 -7 -7 -7 -7 -7 -7 -7 -8 -8 -8 -8 -9 -9 -9 -9 -9 -9 -9 -9 -9 -8 -8 -8 -7 -7 -6 -6
-1 -1 -2 -3 -4 -4 -5 -6 -6 -7 -7 -7 -8 -8 -8 -8 -8 -8 -7 -7 -8 -8 -8 -8 -9 -9 -9 -9 -9 -9 -9 -9 -9 -9 -9 -9 -9 -9 -9 -8 -8 -7 -7
-1 -2 -2 -3 -4 -5 -6 -6 -6 -7 -8 -8 -8 -8 -8 -8 -8 -8 -8 -8 -8 -9 -9 -9 -9 -9 -9 -10 -10 -10 -10 -10 -10 -10 -10 -10 -10 -9 -9 -9 -8 -7 -7
-2 -3 -3 -4 -5 -6 -6 -7 -7 -7 -8 -8 -8 -8 -9 -8 -8 -8 -8 -8 -9 -9 -9 -10 -10 -10 -10 -11 -11 -10 -10 -10 -10 -10 -10 -10 -10 -10 -9 -8 -8 -8 -7
Wind_Speed
1 3 2 3 3 4 3 3 4 6 7 6 6 7 8 7 8 10 10 14 16 18 21 23 24 25 26 28 29 30 30 31 32 32 33 33 33 33 34 33 33 33 33
2 2 3 4 4 5 5 4 5 6 6 6 7 8 7 6 7 9 11 15 18 17 18 22 23 24 25 26 27 29 30 31 32 33 34 34 34 34 35 36 36 36 35
4 4 5 5 4 7 7 5 5 4 6 6 7 7 7 7 7 8 11 11 14 16 17 19 20 22 23 24 26 27 28 29 31 32 34 34 34 34 35 37 37 38 38
10 6 6 6 6 8 5 6 5 6 7 7 7 7 7 8 10 8 8 9 9 10 12 15 17 20 22 24 26 26 27 27 28 29 31 33 34 35 36 38 38 38 40
14 8 6 6 8 5 6 7 6 6 7 8 8 8 8 9 10 10 9 8 10 12 12 16 20 21 23 24 26 26 27 27 27 28 29 29 31 33 35 37 39 39 41
15 10 4 6 7 6 6 7 8 8 6 7 10 9 9 10 7 7 11 12 10 13 14 15 15 18 22 25 26 28 28 28 28 28 29 29 30 30 31 33 35 38 40
13 9 6 6 7 6 7 8 6 7 6 6 6 7 7 7 7 10 12 11 11 10 11 13 13 15 16 22 24 28 30 31 30 29 28 28 29 29 30 31 31 32 35
12 10 7 7 7 6 8 7 5 5 5 7 6 6 5 6 5 11 8 8 10 8 10 12 13 14 14 12 17 26 29 28 27 26 26 26 27 28 28 29 30 31 33
12 10 8 6 7 6 6 6 7 7 6 6 6 4 5 5 10 5 8 10 8 10 10 10 10 10 15 14 16 20 22 23 25 27 27 27 28 29 30 30 29 29 30
9 9 7 6 6 6 6 6 7 5 6 6 5 4 6 9 7 8 6 7 10 10 10 12 11 11 15 15 18 22 22 24 29 30 30 30 30 31 31 32 32 32 30
7 8 7 5 5 5 6 6 6 6 5 5 5 6 7 7 8 11 13 9 7 7 8 9 10 11 12 14 13 20 29 32 33 34 34 34 34 34 34 34 34 34 34
5 6 6 5 4 4 4 5 5 7 6 6 6 6 7 7 8 10 15 16 12 8 8 8 9 10 10 11 19 25 31 33 35 36 37 37 36 36 36 36 37 37 36
4 5 5 5 4 4 5 5 6 7 7 7 7 7 7 7 8 10 13 16 18 12 9 7 7 8 12 9 12 25 28 32 34 36 37 37 37 37 37 38 38 37 36
4 5 5 5 5 5 6 6 6 7 7 8 10 9 8 8 8 8 10 13 19 18 12 10 7 8 8 6 16 28 18 30 33 35 36 37 37 37 37 37 37 37 36
4 5 5 6 6 6 6 7 6 8 8 8 9 10 9 8 8 8 7 8 12 21 22 15 9 10 8 5 18 14 12 28 33 34 34 35 36 37 37 37 37 37 36
5 5 6 6 7 7 7 7 7 8 9 9 8 10 10 9 8 7 7 7 7 13 22 19 14 12 13 18 23 14 13 32 32 33 33 35 36 37 37 37 37 37 36
5 5 6 6 7 7 7 7 8 10 10 10 11 13 13 12 10 8 7 7 8 9 16 19 16 14 15 16 17 12 12 13 15 29 33 36 37 37 37 37 37 36 36
5 6 6 7 8 8 8 8 10 11 9 11 13 14 15 14 13 10 8 8 8 9 13 21 18 15 17 16 16 14 17 18 13 28 34 35 36 36 36 36 37 36 36
6 6 7 7 8 9 9 9 10 9 9 12 14 15 16 15 15 10 9 9 9 14 12 17 19 16 15 14 15 16 16 12 18 23 29 31 33 35 36 37 36 34 32
6 7 7 8 8 9 10 10 8 8 10 11 12 15 16 16 14 12 13 11 12 13 14 16 17 17 16 12 12 14 17 11 14 18 23 26 30 33 34 35 35 33 32
7 8 8 8 9 9 10 11 10 11 9 11 13 15 16 20 24 20 18 13 14 15 15 16 17 18 16 13 13 13 18 18 15 13 15 17 16 16 18 25 29 31 31
8 8 8 9 9 11 19 24 19 10 9 12 16 15 16 17 21 27 30 30 27 21 18 18 18 19 21 17 14 16 18 20 21 9 12 17 15 16 15 13 25 31 30
7 8 9 9 9 12 23 24 23 14 9 11 14 15 16 18 23 16 24 28 24 26 27 21 20 20 20 18 19 20 20 21 21 16 17 19 13 15 14 18 29 31 31
7 8 9 10 10 14 23 23 23 12 9 11 12 14 16 15 19 22 19 19 18 17 21 19 15 17 19 17 18 20 21 20 17 13 14 18 14 15 17 15 26 31 32
8 8 9 10 10 12 20 22 22 10 9 11 13 15 18 18 27 31 23 21 20 16 23 28 29 28 32 32 26 18 17 17 19 13 8 14 16 16 15 15 20 28 27
8 9 10 10 10 10 18 23 23 9 10 12 13 14 21 24 30 33 23 20 18 17 17 18 19 21 19 21 27 18 16 18 19 17 9 10 16 15 12 9 9 9 14
Wind_Direction
37 22 333 322 319 333 333 314 306 313 321 322 326 329 326 313 306 304 300 294 285 266 270 277 277 277 277 277 276 272 266 262 260 259 257 256 254 252 249 246 244 243 241
52 0 342 4 3 357 350 342 337 339 333 336 329 317 309 311 313 318 313 310 305 294 281 285 287 286 284 282 282 281 278 271 264 259 257 256 255 253 251 249 245 243 242
54 45 35 21 5 6 5 7 355 343 339 334 324 321 318 307 291 288 287 286 286 285 282 285 291 293 293 291 288 286 284 283 278 272 265 259 255 253 252 251 249 245 242
54 55 43 22 16 24 16 2 0 358 346 337 328 323 321 311 299 292 294 293 296 301 304 302 301 303 300 298 296 293 289 287 285 282 278 273 266 259 254 251 250 248 245
43 49 42 25 13 25 17 6 5 0 345 340 336 329 323 312 307 312 324 341 345 344 342 339 335 329 319 314 312 309 305 301 296 291 287 284 280 274 267 260 255 251 248
41 33 37 30 17 22 18 14 6 357 346 346 334 327 311 305 311 352 355 346 337 339 344 344 340 333 331 327 323 319 314 310 307 302 297 293 288 284 280 275 269 262 256
47 43 29 30 22 22 26 14 8 349 344 336 333 322 302 319 342 1 338 324 323 330 337 336 329 324 317 317 319 317 315 312 310 309 308 305 302 297 292 288 284 279 272
45 44 35 30 21 24 22 6 9 353 344 348 349 334 329 315 1 326 301 317 312 319 329 325 315 307 305 310 313 315 313 310 308 309 311 312 311 309 306 301 296 291 285
47 40 37 31 21 28 18 0 11 0 345 341 354 351 331 305 314 276 324 302 321 329 316 310 305 314 320 318 313 308 304 309 313 311 309 308 308 309 308 308 308 306 302
59 38 35 34 29 29 20 0 3 347 346 333 332 341 303 303 308 306 298 305 312 310 310 314 321 321 318 313 307 307 311 321 318 313 310 308 306 306 306 306 308 308 308
68 43 31 28 32 30 10 354 346 339 335 325 321 315 306 304 299 305 304 299 295 290 301 315 318 313 309 308 311 313 319 317 314 312 309 306 304 303 304 305 306 306 305
64 43 27 19 21 17 354 342 339 332 319 311 308 301 296 301 306 303 303 306 304 296 297 298 300 301 304 308 309 316 317 314 311 309 307 303 302 301 301 302 301 300 299
47 27 18 6 4 356 345 343 336 319 308 307 302 294 290 291 294 296 300 304 304 302 294 284 285 295 306 305 311 316 313 311 309 307 305 304 303 302 301 299 297 295 294
41 16 5 358 355 350 341 334 319 307 307 302 301 297 293 288 287 291 296 304 306 306 301 294 289 295 296 300 310 311 310 308 306 304 303 303 302 301 298 296 294 293 292
26 11 357 355 345 337 329 324 310 304 301 295 292 290 289 285 282 282 287 293 301 305 305 306 303 299 300 299 302 302 299 302 301 300 301 300 300 298 297 296 294 292 290
16 359 353 345 333 324 318 315 308 303 302 299 297 294 293 293 288 285 283 283 288 295 297 301 305 309 308 306 303 300 296 298 298 299 298 299 298 295 294 292 291 290 288
4 352 341 329 320 314 316 316 313 308 303 303 306 306 302 300 297 292 288 287 284 287 294 299 301 302 301 301 299 292 291 289 292 296 300 299 297 295 294 294 293 291 290
350 334 326 318 314 316 316 312 310 307 308 317 314 309 306 307 303 298 291 288 291 293 292 295 298 299 296 296 297 297 303 301 297 299 301 299 299 298 298 297 294 293 291
328 320 317 313 311 310 307 302 300 306 320 315 311 310 309 307 302 298 295 294 293 294 288 291 295 296 294 295 299 301 300 296 299 301 302 300 299 297 295 295 294 294 295
316 310 305 301 301 300 300 297 300 313 308 307 309 307 304 301 301 302 300 289 291 293 292 292 295 297 295 294 299 305 305 299 299 302 298 295 295 296 295 296 296 295 295
307 298 296 297 296 300 301 306 313 311 310 311 307 303 300 302 304 304 302 302 302 299 299 298 299 300 302 307 304 305 305 304 295 293 293 292 292 289 290 291 292 291 290
295 296 299 299 300 308 313 314 315 311 309 310 307 304 302 301 303 307 307 304 304 305 306 305 305 306 305 303 303 303 302 301 299 293 286 293 291 289 289 288 289 291 292
306 309 306 305 302 305 314 315 317 320 309 304 303 304 307 309 310 302 301 305 308 306 306 306 303 302 303 305 302 300 298 296 296 300 299 294 292 292 294 294 295 295 293
311 307 304 302 301 307 316 319 319 319 301 298 300 304 305 305 306 306 307 312 308 304 301 303 299 301 302 300 297 300 300 298 293 289 289 293 297 294 295 291 292 290 288
310 304 302 304 304 309 318 319 318 306 302 303 305 308 308 305 306 312 316 312 309 306 309 308 307 307 306 307 307 305 302 301 300 298 285 288 294 294 291 288 283 284 287
305 305 306 305 305 310 319 320 319 310 311 311 309 307 309 311 312 316 315 313 312 310 311 313 311 307 303 300 303 300 299 299 299 300 286 282 292 297 296 272 262 277 288
Height
1504 1503 1503 1503 1501 1500 1499 1498 1496 1495 1493 1492 1490 1488 1486 1485 1483 1482 1480 1478 1476 1474 1472 1470 1468 1466 1464 1462 1460 1459 1457 1456 1455 1455 1454 1454 1455 1455 1456 1456 1457 1458 1459
1502 1502 1501 1501 1499 1498 1497 1496 1494 1492 1491 1489 1487 1485 1483 1481 1479 1477 1475 1472 1470 1469 1467 1465 1463 1461 1459 1457 1454 1452 1450 1449 1447 1446 1445 1445 1445 1445 1446 1447 1448 1449 1450
1500 1500 1499 1498 1497 1496 1495 1493 1492 1490 1488 1486 1484 1482 1479 1476 1474 1471 1469 1467 1465 1464 1462 1460 1458 1456 1454 1451 1449 1446 1443 1441 1439 1438 1437 1436 1435 1435 1436 1437 1438 1439 1440
1498 1497 1497 1496 1495 1494 1493 1491 1489 1487 1484 1482 1479 1477 1474 1471 1469 1467 1465 1463 1461 1459 1457 1455 1453 1451 1448 1445 1443 1440 1437 1434 1431 1429 1427 1426 1426 1425 1425 1425 1425 1427 1428
1497 1496 1496 1495 1493 1492 1490 1488 1486 1483 1480 1477 1474 1472 1469 1466 1464 1462 1460 1457 1455 1453 1451 1449 1447 1444 1442 1439 1436 1433 1430 1427 1424 1421 1419 1417 1415 1414 1413 1413 1413 1413 1414
1496 1496 1495 1493 1492 1490 1487 1485 1483 1480 1477 1474 1470 1467 1464 1462 1461 1458 1455 1453 1451 1449 1446 1444 1441 1439 1436 1433 1430 1427 1423 1420 1417 1414 1411 1408 1405 1403 1401 1401 1400 1400 1401
1495 1495 1493 1492 1489 1487 1484 1482 1479 1477 1474 1470 1466 1461 1459 1459 1456 1454 1452 1449 1447 1444 1441 1438 1435 1432 1429 1425 1422 1419 1415 1412 1409 1406 1402 1399 1396 1393 1391 1389 1388 1387 1387
1494 1493 1491 1489 1487 1484 1482 1479 1476 1474 1471 1469 1465 1460 1455 1452 1451 1450 1447 1444 1441 1438 1435 1431 1428 1425 1421 1418 1414 1411 1407 1404 1400 1397 1394 1391 1387 1384 1381 1379 1376 1375 1374
1493 1491 1489 1487 1484 1481 1479 1477 1475 1472 1469 1468 1466 1464 1459 1452 1446 1441 1440 1437 1435 1432 1428 1424 1421 1418 1414 1410 1406 1403 1400 1396 1392 1388 1385 1381 1378 1375 1372 1369 1367 1364 1362
1490 1488 1486 1484 1481 1479 1477 1475 1473 1471 1468 1466 1464 1462 1460 1454 1446 1435 1433 1431 1428 1424 1421 1417 1414 1409 1406 1402 1399 1396 1392 1387 1383 1379 1376 1372 1369 1366 1363 1360 1357 1354 1351
1487 1486 1484 1482 1479 1477 1475 1473 1471 1469 1466 1463 1460 1457 1453 1449 1445 1437 1425 1420 1419 1417 1414 1410 1406 1402 1399 1395 1391 1387 1383 1377 1374 1370 1367 1364 1360 1357 1353 1350 1346 1343 1340
1485 1483 1481 1479 1477 1474 1472 1470 1468 1466 1463 1460 1456 1453 1449 1445 1439 1434 1424 1414 1409 1406 1405 1402 1398 1395 1392 1388 1384 1380 1374 1369 1365 1361 1357 1354 1351 1347 1344 1340 1337 1333 1330
1483 1481 1479 1476 1474 1472 1470 1467 1465 1462 1459 1455 1452 1448 1444 1440 1436 1431 1423 1412 1402 1396 1394 1392 1390 1387 1384 1380 1376 1371 1366 1362 1357 1353 1348 1344 1340 1336 1333 1329 1326 1323 1320
1481 1478 1476 1473 1471 1469 1466 1464 1461 1457 1454 1450 1446 1442 1438 1434 1430 1426 1421 1412 1398 1387 1384 1382 1380 1378 1375 1372 1367 1363 1358 1353 1349 1344 1340 1335 1330 1326 1322 1318 1315 1311 1308
1478 1475 1472 1470 1468 1465 1463 1460 1456 1452 1449 1445 1440 1436 1432 1427 1423 1419 1415 1411 1403 1387 1374 1372 1370 1368 1366 1362 1358 1354 1349 1345 1340 1335 1330 1326 1321 1316 1311 1307 1303 1299 1296
1474 1471 1469 1467 1465 1462 1459 1455 1451 1447 1443 1438 1434 1429 1424 1420 1415 1412 1408 1403 1399 1391 1376 1366 1363 1359 1355 1352 1349 1345 1341 1336 1331 1326 1321 1316 1311 1306 1300 1296 1292 1288 1284
1471 1468 1466 1463 1461 1458 1454 1450 1445 1441 1436 1432 1427 1422 1417 1413 1408 1403 1399 1395 1390 1385 1375 1362 1358 1353 1347 1342 1338 1335 1331 1326 1321 1316 1311 1306 1300 1294 1289 1284 1280 1276 1273
1468 1465 1462 1460 1457 1453 1449 1444 1439 1435 1430 1425 1420 1415 1409 1405 1400 1396 1392 1386 1382 1377 1370 1359 1350 1346 1340 1335 1329 1324 1320 1316 1311 1306 1301 1295 1289 1283 1278 1273 1269 1265 1261
1464 1462 1459 1456 1452 1448 1443 1438 1434 1429 1425 1419 1413 1408 1402 1398 1393 1389 1384 1379 1374 1368 1362 1354 1344 1338 1332 1327 1321 1315 1310 1305 1301 1295 1289 1283 1278 1272 1267 1262 1258 1254 1250
1461 1458 1455 1452 1447 1442 1438 1433 1429 1424 1418 1412 1407 1402 1397 1392 1388 1383 1377 1372 1367 1360 1354 1347 1338 1330 1324 1318 1313 1306 1297 1292 1287 1283 1277 1272 1266 1261 1255 1251 1247 1243 1239
1458 1455 1451 1446 1442 1438 1433 1429 1424 1418 1412 1405 1399 1395 1391 1387 1383 1378 1372 1366 1360 1354 1346 1339 1330 1323 1316 1310 1305 1298 1290 1281 1274 1273 1265 1258 1255 1248 1243 1239 1235 1231 1229
1454 1450 1446 1442 1437 1433 1429 1424 1419 1412 1406 1399 1393 1388 1385 1381 1376 1371 1366 1360 1355 1348 1339 1332 1324 1317 1310 1304 1297 1290 1282 1273 1261 1261 1256 1247 1245 1238 1233 1229 1225 1221 1218
1449 1445 1441 1436 1432 1427 1423 1418 1413 1407 1400 1394 1389 1384 1379 1375 1370 1363 1357 1351 1346 1340 1335 1329 1319 1311 1303 1296 1289 1281 1273 1266 1257 1252 1248 1236 1234 1228 1224 1219 1215 1211 1208
1445 1440 1435 1430 1426 1421 1417 1412 1407 1401 1395 1390 1385 1380 1375 1368 1363 1357 1349 1342 1336 1331 1326 1319 1312 1303 1296 1289 1283 1275 1266 1257 1248 1245 1242 1231 1223 1218 1213 1208 1204 1200 1196
1440 1435 1430 1425 1420 1416 1412 1407 1402 1396 1390 1385 1380 1375 1370 1363 1357 1351 1344 1335 1327 1320 1315 1309 1302 1295 1288 1281 1275 1267 1259 1251 1240 1235 1233 1226 1215 1208 1202 1196 1192 1189 1186
1435 1430 1425 1421 1416 1411 1406 1402 1398 1392 1386 1379 1374 1369 1364 1358 1351 1344 1337 1328 1319 1311 1305 1297 1291 1284 1278 1272 1267 1262 1254 1245 1235 1225 1222 1217 1208 1201 1191 1186 1183 1181 1177